Location: Newark
(7.1028°S, 35.3258°W)
Time: 17:10:30
(UTC+00:00)

X-37B - Pass Details

Date: 02 March 2021
Orbit: 380 x 394 km, 45.0° (Epoch: 07 April)

Event Time Altitude Azimuth Distance (km) Brightness Sun altitude
Rises 21:16:55 0° 203° (SSW) 2,266 4.9 -9.9°
Reaches altitude 10° 21:19:20 10° 185° (S) 1,412 3.6 -10.5°
Maximum altitude 21:21:46 20° 135° (SE) 959 2.2 -11.1°
Enters shadow 21:22:59 17° 104° (ESE) 1,088 2.3 -11.4°
